Location: Chilkamarig?dem
(16.8369°N, 80.6251°E)
Time: 04:50:41
(UTC+00:00)

Daily predictions for brighter satellites

Satellite Brightness Start Highest point End
(mag) Time Altitude Azimuth Time Altitude Azimuth Time Altitude Azimuth
IKONOS-2 4.4 00:02:03 10° S 00:06:16 81° WSW 00:10:28 10° NNW
Delta 198 4.5 00:03:08 10° WNW 00:07:40 51° NNE 00:13:02 10° E
Delta 7925 Rocket 4.2 00:01:51 10° WNW 00:07:45 84° NNE 00:15:29 10° ESE
Palapa 6 Rocket 4.4 00:02:08 10° WNW 00:08:05 59° N 00:15:16 10° E
COBE Rocket 4.3 00:03:13 10° NNE 00:08:16 74° E 00:13:11 10° S
DELTA 2 DEB (DPAF) 4.1 00:05:10 10° S 00:09:29 66° WSW 00:13:49 10° NNW
CZ-4B R/B 4.3 00:06:18 10° NNE 00:09:51 59° E 00:13:25 10° S
NOSS 3-4 (A) 4.2 00:02:29 10° NW 00:10:12 63° WSW 00:18:34 10° SSE
NOSS 3-4 (C) 4.2 00:02:35 10° NW 00:10:18 63° WSW 00:18:42 10° SSE
SL-16 R/B 3.8 00:06:35 10° S 00:11:50 40° ESE 00:17:05 10° NE
Cosmos 1174 4.4 00:06:08 10° SSW 00:11:56 85° WNW 00:16:33 10° NNE
SKYMED 2 3.7 00:07:57 10° SSE 00:12:16 86° E 00:16:37 10° N
Cosmos 2278 3.7 00:10:30 10° SSW 00:16:11 82° WNW 00:21:54 10° NNE
Meteor 1-18 Rocket 4.5 00:12:07 10° SSW 00:17:26 47° W 00:22:50 10° N
